Time,TemperatureF,DewpointF,PressureIn,WindDirection,WindDirectionDegrees,WindSpeedMPH,WindSpeedGustMPH,Humidity,HourlyPrecipIn,Conditions,Clouds,dailyrainin,SoftwareType,DateUTC
2013-02-10 00:00:00,65.7,48.1,30.24,ESE,112,4.3,5.8,53,0.00,,---,0.00,VWS V14.01,2013-02-10 05:00:00,
2013-02-10 00:01:00,65.7,48.1,30.24,East,90,3.8,4.9,53,0.00,,---,0.00,VWS V14.01,2013-02-10 05:01:00,
2013-02-10 00:02:00,65.7,48.1,30.24,NW,315,0.9,3.8,53,0.00,,---,0.00,VWS V14.01,2013-02-10 05:02:00,
2013-02-10 00:04:00,65.7,48.1,30.24,ENE,68,4.9,5.4,53,0.00,,---,0.00,VWS V14.01,2013-02-10 05:04:00,
2013-02-10 00:09:00,65.5,47.9,30.24,NNE,22,2.7,5.6,53,0.00,,---,0.00,VWS V14.01,2013-02-10 05:09:00,
2013-02-10 00:15:00,65.5,48.4,30.24,ENE,68,3.4,4.3,54,0.00,,---,0.00,VWS V14.01,2013-02-10 05:15:00,
2013-02-10 00:20:00,65.5,48.4,30.24,ESE,112,3.8,4.9,54,0.00,,---,0.00,VWS V14.01,2013-02-10 05:20:00,
2013-02-10 00:27:00,65.3,48.7,30.24,ENE,68,4.9,4.9,55,0.00,,---,0.00,VWS V14.01,2013-02-10 05:27:00,
2013-02-10 00:32:00,65.1,48.6,30.24,ENE,68,4.9,5.6,55,0.00,,---,0.00,VWS V14.01,2013-02-10 05:32:00,
2013-02-10 00:38:00,65.1,48.6,30.24,East,90,2.5,3.4,55,0.00,,---,0.00,VWS V14.01,2013-02-10 05:38:00,
2013-02-10 00:44:00,65.1,49.0,30.24,NE,45,1.1,6.0,56,0.00,,---,0.00,VWS V14.01,2013-02-10 05:44:00,
2013-02-10 00:49:00,64.9,48.9,30.24,ESE,112,3.6,6.0,56,0.00,,---,0.00,VWS V14.01,2013-02-10 05:49:00,
2013-02-10 00:54:00,64.9,48.9,30.24,East,90,2.0,3.1,56,0.00,,---,0.00,VWS V14.01,2013-02-10 05:54:00,
2013-02-10 01:00:00,64.8,49.2,30.24,ENE,68,2.9,4.0,57,0.00,,---,0.00,VWS V14.01,2013-02-10 06:00:00,
2013-02-10 01:05:00,64.8,49.2,30.24,ESE,112,6.3,6.3,57,0.00,,---,0.00,VWS V14.01,2013-02-10 06:05:00,
2013-02-10 01:10:00,64.6,49.5,30.24,ENE,68,5.4,5.4,58,0.00,,---,0.00,VWS V14.01,2013-02-10 06:10:00,
2013-02-10 01:15:00,64.6,49.5,30.24,NE,45,2.5,6.0,58,0.00,,---,0.00,VWS V14.01,2013-02-10 06:15:00,
2013-02-10 01:20:00,64.4,49.3,30.24,ENE,68,4.9,8.1,58,0.00,,---,0.00,VWS V14.01,2013-02-10 06:20:00,
2013-02-10 01:26:00,64.4,49.8,30.24,East,90,6.5,6.5,59,0.00,,---,0.00,VWS V14.01,2013-02-10 06:26:00,
2013-02-10 01:32:00,64.4,50.2,30.24,ESE,112,4.0,4.0,60,0.00,,---,0.00,VWS V14.01,2013-02-10 06:32:00,
2013-02-10 01:37:00,64.2,50.1,30.24,ENE,68,4.3,4.3,60,0.00,,---,0.00,VWS V14.01,2013-02-10 06:37:00,
2013-02-10 01:43:00,64.2,50.1,30.24,East,90,2.5,4.0,60,0.00,,---,0.00,VWS V14.01,2013-02-10 06:43:00,
2013-02-10 01:48:00,64.2,50.5,30.24,ESE,112,2.9,6.5,61,0.00,,---,0.00,VWS V14.01,2013-02-10 06:48:00,
2013-02-10 01:54:00,64.2,50.5,30.24,NE,45,1.6,3.8,61,0.00,,---,0.00,VWS V14.01,2013-02-10 06:54:00,
2013-02-10 01:59:00,64.0,50.8,30.24,ESE,112,2.9,3.6,62,0.00,,---,0.00,VWS V14.01,2013-02-10 06:59:00,
2013-02-10 02:05:00,64.0,50.8,30.24,NNE,22,5.4,5.4,62,0.00,,---,0.00,VWS V14.01,2013-02-10 07:05:00,
2013-02-10 02:11:00,64.0,50.8,30.24,ENE,68,3.4,3.4,62,0.00,,---,0.00,VWS V14.01,2013-02-10 07:11:00,
2013-02-10 02:16:00,64.0,51.2,30.24,ENE,68,3.1,3.8,63,0.00,,---,0.00,VWS V14.01,2013-02-10 07:16:00,
2013-02-10 02:22:00,64.2,51.4,30.24,ESE,112,5.8,6.5,63,0.00,,---,0.00,VWS V14.01,2013-02-10 07:22:00,
2013-02-10 02:27:00,64.2,51.4,30.24,East,90,3.1,5.6,63,0.00,,---,0.00,VWS V14.01,2013-02-10 07:27:00,
2013-02-10 02:33:00,64.2,51.8,30.24,ENE,68,2.0,2.5,64,0.00,,---,0.00,VWS V14.01,2013-02-10 07:33:00,
2013-02-10 02:38:00,64.2,51.8,30.24,NNE,22,2.5,3.1,64,0.00,,---,0.00,VWS V14.01,2013-02-10 07:38:00,
2013-02-10 02:43:00,64.2,51.8,30.24,ENE,68,4.0,4.0,64,0.00,,---,0.00,VWS V14.01,2013-02-10 07:43:00,
2013-02-10 02:49:00,64.2,51.8,30.21,ESE,112,4.3,4.3,64,0.00,,---,0.00,VWS V14.01,2013-02-10 07:49:00,
2013-02-10 02:54:00,64.2,51.8,30.21,ESE,112,3.4,4.0,64,0.00,,---,0.00,VWS V14.01,2013-02-10 07:54:00,
2013-02-10 02:59:00,64.2,52.2,30.21,East,90,1.3,4.0,65,0.00,,---,0.00,VWS V14.01,2013-02-10 07:59:00,
2013-02-10 03:06:00,64.2,52.2,30.21,ENE,68,2.9,2.9,65,0.00,,---,0.00,VWS V14.01,2013-02-10 08:06:00,
2013-02-10 03:11:00,64.2,52.2,30.21,ENE,68,2.2,3.6,65,0.00,,---,0.00,VWS V14.01,2013-02-10 08:11:00,
2013-02-10 03:16:00,64.2,52.2,30.21,NE,45,2.0,4.0,65,0.00,,---,0.00,VWS V14.01,2013-02-10 08:16:00,
2013-02-10 03:22:00,64.2,52.2,30.21,SE,135,1.3,5.4,65,0.00,,---,0.00,VWS V14.01,2013-02-10 08:22:00,
2013-02-10 03:28:00,64.2,52.2,30.24,East,90,4.0,4.0,65,0.00,,---,0.00,VWS V14.01,2013-02-10 08:28:00,
2013-02-10 03:33:00,64.0,52.0,30.24,ESE,112,2.9,3.1,65,0.00,,---,0.00,VWS V14.01,2013-02-10 08:33:00,
2013-02-10 03:39:00,64.0,52.0,30.24,ENE,68,2.5,2.9,65,0.00,,---,0.00,VWS V14.01,2013-02-10 08:39:00,
2013-02-10 03:44:00,63.9,51.9,30.21,NE,45,2.2,2.7,65,0.00,,---,0.00,VWS V14.01,2013-02-10 08:44:00,
2013-02-10 03:50:00,63.9,51.9,30.21,East,90,2.7,2.9,65,0.00,,---,0.00,VWS V14.01,2013-02-10 08:50:00,
2013-02-10 03:56:00,63.9,51.9,30.21,ENE,68,2.7,3.8,65,0.00,,---,0.00,VWS V14.01,2013-02-10 08:56:00,
2013-02-10 04:01:00,63.9,52.3,30.21,East,90,3.8,3.8,66,0.00,,---,0.00,VWS V14.01,2013-02-10 09:01:00,
2013-02-10 04:07:00,63.9,52.3,30.21,ENE,68,1.1,3.1,66,0.00,,---,0.00,VWS V14.01,2013-02-10 09:07:00,
2013-02-10 04:13:00,63.9,52.3,30.21,ENE,68,3.1,5.6,66,0.00,,---,0.00,VWS V14.01,2013-02-10 09:13:00,
2013-02-10 04:18:00,63.9,52.3,30.24,East,90,1.6,4.0,66,0.00,,---,0.00,VWS V14.01,2013-02-10 09:18:00,
2013-02-10 04:24:00,64.0,52.5,30.24,ENE,68,3.1,3.1,66,0.00,,---,0.00,VWS V14.01,2013-02-10 09:24:00,
2013-02-10 04:29:00,64.0,52.5,30.21,NE,45,1.6,2.9,66,0.00,,---,0.00,VWS V14.01,2013-02-10 09:29:00,
2013-02-10 04:35:00,64.0,52.5,30.21,ENE,68,3.8,4.9,66,0.00,,---,0.00,VWS V14.01,2013-02-10 09:35:00,
2013-02-10 04:40:00,63.9,52.3,30.21,NE,45,3.1,4.9,66,0.00,,---,0.00,VWS V14.01,2013-02-10 09:40:00,
2013-02-10 04:46:00,63.9,52.3,30.24,NNE,22,2.7,4.9,66,0.00,,---,0.00,VWS V14.01,2013-02-10 09:46:00,
2013-02-10 04:52:00,63.9,52.7,30.24,SE,135,4.0,4.0,67,0.00,,---,0.00,VWS V14.01,2013-02-10 09:52:00,
2013-02-10 04:57:00,63.9,52.7,30.24,ENE,68,3.8,6.0,67,0.00,,---,0.00,VWS V14.01,2013-02-10 09:57:00,
2013-02-10 05:03:00,63.7,52.5,30.24,East,90,3.4,5.6,67,0.00,,---,0.00,VWS V14.01,2013-02-10 10:03:00,
2013-02-10 05:08:00,63.7,52.9,30.24,East,90,3.4,3.4,68,0.00,,---,0.00,VWS V14.01,2013-02-10 10:08:00,
2013-02-10 05:14:00,63.5,52.4,30.24,ESE,112,3.4,4.7,67,0.00,,---,0.00,VWS V14.01,2013-02-10 10:14:00,
2013-02-10 05:20:00,63.5,52.4,30.24,SE,135,1.6,6.0,67,0.00,,---,0.00,VWS V14.01,2013-02-10 10:20:00,
2013-02-10 05:25:00,63.5,52.4,30.24,East,90,3.4,4.9,67,0.00,,---,0.00,VWS V14.01,2013-02-10 10:25:00,
2013-02-10 05:31:00,63.3,52.6,30.21,ENE,68,2.7,4.0,68,0.00,,---,0.00,VWS V14.01,2013-02-10 10:31:00,
2013-02-10 05:36:00,63.1,52.4,30.21,East,90,2.2,4.7,68,0.00,,---,0.00,VWS V14.01,2013-02-10 10:36:00,
2013-02-10 05:42:00,63.1,52.4,30.21,ENE,68,6.3,6.3,68,0.00,,---,0.00,VWS V14.01,2013-02-10 10:42:00,
2013-02-10 05:48:00,63.1,52.4,30.24,East,90,2.0,4.9,68,0.00,,---,0.00,VWS V14.01,2013-02-10 10:48:00,
2013-02-10 05:53:00,63.0,52.2,30.24,ESE,112,3.1,5.8,68,0.00,,---,0.00,VWS V14.01,2013-02-10 10:53:00,
2013-02-10 05:59:00,63.0,52.2,30.21,ENE,68,2.9,3.8,68,0.00,,---,0.00,VWS V14.01,2013-02-10 10:59:00,
2013-02-10 06:04:00,63.0,52.2,30.21,NNE,22,3.6,3.8,68,0.00,,---,0.00,VWS V14.01,2013-02-10 11:04:00,
2013-02-10 06:10:00,63.0,52.6,30.21,ESE,112,2.0,5.4,69,0.00,,---,0.00,VWS V14.01,2013-02-10 11:10:00,
2013-02-10 06:15:00,62.8,52.5,30.24,ENE,68,1.6,2.7,69,0.00,,---,0.00,VWS V14.01,2013-02-10 11:15:00,
2013-02-10 06:20:00,62.8,52.5,30.24,East,90,2.9,3.6,69,0.00,,---,0.00,VWS V14.01,2013-02-10 11:20:00,
2013-02-10 06:26:00,62.8,52.5,30.24,ENE,68,2.5,4.0,69,0.00,,---,0.00,VWS V14.01,2013-02-10 11:26:00,
2013-02-10 06:31:00,62.8,52.5,30.24,ENE,68,2.0,4.3,69,0.00,,---,0.00,VWS V14.01,2013-02-10 11:31:00,
2013-02-10 06:37:00,62.8,52.5,30.24,NE,45,3.8,3.8,69,0.00,,---,0.00,VWS V14.01,2013-02-10 11:37:00,
2013-02-10 06:42:00,62.8,52.9,30.24,ESE,112,3.6,3.6,70,0.00,,---,0.00,VWS V14.01,2013-02-10 11:42:00,
2013-02-10 06:47:00,62.8,52.9,30.24,ENE,68,2.9,2.9,70,0.00,,---,0.00,VWS V14.01,2013-02-10 11:47:00,
2013-02-10 06:52:00,62.8,52.9,30.24,ENE,68,2.7,4.0,70,0.00,,---,0.00,VWS V14.01,2013-02-10 11:52:00,
2013-02-10 06:58:00,62.6,52.7,30.24,ENE,68,1.3,4.3,70,0.00,,---,0.00,VWS V14.01,2013-02-10 11:58:00,
2013-02-10 07:03:00,62.6,52.7,30.24,East,90,2.0,2.9,70,0.00,,---,0.00,VWS V14.01,2013-02-10 12:03:00,
2013-02-10 07:10:00,62.6,52.7,30.24,ENE,68,2.9,2.9,70,0.00,,---,0.00,VWS V14.01,2013-02-10 12:10:00,
2013-02-10 07:15:00,62.6,52.7,30.24,East,90,3.6,5.4,70,0.00,,---,0.00,VWS V14.01,2013-02-10 12:15:00,
2013-02-10 07:20:00,62.6,52.7,30.24,East,90,2.2,5.4,70,0.00,,---,0.00,VWS V14.01,2013-02-10 12:20:00,
2013-02-10 07:26:00,62.6,52.7,30.24,North,0,2.7,3.8,70,0.00,,---,0.00,VWS V14.01,2013-02-10 12:26:00,
2013-02-10 07:31:00,62.6,52.7,30.27,ESE,112,3.1,5.4,70,0.00,,---,0.00,VWS V14.01,2013-02-10 12:31:00,
2013-02-10 07:37:00,62.6,52.7,30.27,ENE,68,1.3,4.3,70,0.00,,---,0.00,VWS V14.01,2013-02-10 12:37:00,
2013-02-10 07:42:00,62.8,53.2,30.27,ENE,68,2.7,4.0,71,0.00,,---,0.00,VWS V14.01,2013-02-10 12:42:00,
2013-02-10 07:48:00,62.8,53.2,30.27,ENE,68,2.5,3.8,71,0.00,,---,0.00,VWS V14.01,2013-02-10 12:48:00,
2013-02-10 07:54:00,63.0,53.4,30.27,ESE,112,2.9,3.4,71,0.00,,---,0.00,VWS V14.01,2013-02-10 12:54:00,
2013-02-10 08:00:00,63.1,53.6,30.27,ENE,68,4.0,7.6,71,0.00,,---,0.00,VWS V14.01,2013-02-10 13:00:00,
2013-02-10 08:05:00,63.3,53.8,30.27,NNE,22,2.2,4.0,71,0.00,,---,0.00,VWS V14.01,2013-02-10 13:05:00,
2013-02-10 08:11:00,63.5,53.9,30.27,ENE,68,4.5,4.9,71,0.00,,---,0.00,VWS V14.01,2013-02-10 13:11:00,
2013-02-10 08:16:00,63.7,53.7,30.27,ESE,112,4.7,4.7,70,0.00,,---,0.00,VWS V14.01,2013-02-10 13:16:00,
2013-02-10 08:23:00,63.9,53.9,30.27,SE,135,5.4,5.4,70,0.00,,---,0.00,VWS V14.01,2013-02-10 13:23:00,
2013-02-10 08:29:00,64.4,54.4,30.27,ESE,112,3.6,4.0,70,0.00,,---,0.00,VWS V14.01,2013-02-10 13:29:00,
2013-02-10 08:34:00,64.8,54.8,30.27,ENE,68,2.9,2.9,70,0.00,,---,0.00,VWS V14.01,2013-02-10 13:34:00,
2013-02-10 08:40:00,65.1,55.1,30.27,NE,45,3.1,5.6,70,0.00,,---,0.00,VWS V14.01,2013-02-10 13:40:00,
2013-02-10 08:46:00,65.7,55.2,30.27,ENE,68,3.6,5.8,69,0.00,,---,0.00,VWS V14.01,2013-02-10 13:46:00,
2013-02-10 08:51:00,65.8,55.4,30.27,SE,135,2.9,8.5,69,0.00,,---,0.00,VWS V14.01,2013-02-10 13:51:00,
2013-02-10 08:57:00,66.4,55.5,30.27,ENE,68,3.1,4.3,68,0.00,,---,0.00,VWS V14.01,2013-02-10 13:57:00,
2013-02-10 09:02:00,66.7,55.8,30.27,NE,45,1.1,4.0,68,0.00,,---,0.00,VWS V14.01,2013-02-10 14:02:00,
2013-02-10 09:07:00,67.3,56.0,30.27,SE,135,2.9,3.6,67,0.00,,---,0.00,VWS V14.01,2013-02-10 14:07:00,
2013-02-10 09:12:00,67.6,56.3,30.27,ESE,112,2.9,5.8,67,0.00,,---,0.00,VWS V14.01,2013-02-10 14:12:00,
2013-02-10 09:18:00,68.4,56.6,30.27,ENE,68,2.7,8.7,66,0.00,,---,0.00,VWS V14.01,2013-02-10 14:18:00,
2013-02-10 09:23:00,68.7,56.1,30.27,ENE,68,9.8,9.8,64,0.00,,---,0.00,VWS V14.01,2013-02-10 14:23:00,
2013-02-10 09:28:00,69.1,56.4,30.27,ENE,68,4.5,6.3,64,0.00,,---,0.00,VWS V14.01,2013-02-10 14:28:00,
2013-02-10 09:33:00,69.6,56.5,30.27,ENE,68,3.4,10.7,63,0.00,,---,0.00,VWS V14.01,2013-02-10 14:33:00,
2013-02-10 09:39:00,70.3,56.7,30.27,ENE,68,2.5,9.6,62,0.00,,---,0.00,VWS V14.01,2013-02-10 14:39:00,
2013-02-10 09:44:00,70.9,56.8,30.30,ESE,112,5.6,8.7,61,0.00,,---,0.00,VWS V14.01,2013-02-10 14:44:00,
2013-02-10 09:50:00,71.4,56.8,30.30,SE,135,6.3,7.8,60,0.00,,---,0.00,VWS V14.01,2013-02-10 14:50:00,
2013-02-10 09:55:00,72.0,56.4,30.30,SE,135,3.4,7.8,58,0.00,,---,0.00,VWS V14.01,2013-02-10 14:55:00,
2013-02-10 10:02:00,72.5,56.4,30.30,ESE,112,5.8,5.8,57,0.00,,---,0.00,VWS V14.01,2013-02-10 15:02:00,
2013-02-10 10:07:00,73.2,56.6,30.30,SSE,158,3.4,7.4,56,0.00,,---,0.00,VWS V14.01,2013-02-10 15:07:00,
2013-02-10 10:12:00,73.8,56.6,30.30,ENE,68,6.0,6.3,55,0.00,,---,0.00,VWS V14.01,2013-02-10 15:12:00,
2013-02-10 10:18:00,74.3,56.1,30.30,SE,135,7.6,7.6,53,0.00,,---,0.00,VWS V14.01,2013-02-10 15:18:00,
2013-02-10 10:24:00,75.0,56.8,30.30,East,90,7.4,7.4,53,0.00,,---,0.00,VWS V14.01,2013-02-10 15:24:00,
2013-02-10 10:29:00,75.2,55.3,30.30,East,90,6.9,8.5,50,0.00,,---,0.00,VWS V14.01,2013-02-10 15:29:00,
2013-02-10 10:35:00,75.7,55.2,30.30,East,90,7.6,7.6,49,0.00,,---,0.00,VWS V14.01,2013-02-10 15:35:00,
2013-02-10 10:40:00,76.1,55.0,30.30,NE,45,7.6,8.5,48,0.00,,---,0.00,VWS V14.01,2013-02-10 15:40:00,
2013-02-10 10:46:00,76.6,53.7,30.30,SSE,158,3.4,10.3,45,0.00,,---,0.00,VWS V14.01,2013-02-10 15:46:00,
2013-02-10 10:51:00,76.8,53.9,30.30,SSE,158,5.6,5.8,45,0.00,,---,0.00,VWS V14.01,2013-02-10 15:51:00,
2013-02-10 10:58:00,77.4,54.4,30.30,SSW,202,2.7,6.5,45,0.00,,---,0.00,VWS V14.01,2013-02-10 15:58:00,
2013-02-10 11:03:00,77.9,54.3,30.30,ENE,68,2.7,4.9,44,0.00,,---,0.00,VWS V14.01,2013-02-10 16:03:00,
2013-02-10 11:08:00,78.4,55.4,30.30,SE,135,8.1,8.1,45,0.00,,---,0.00,VWS V14.01,2013-02-10 16:08:00,
2013-02-10 11:14:00,79.2,55.4,30.30,East,90,4.3,6.3,44,0.00,,---,0.00,VWS V14.01,2013-02-10 16:14:00,
2013-02-10 11:19:00,79.3,54.3,30.30,SSE,158,3.8,4.7,42,0.00,,---,0.00,VWS V14.01,2013-02-10 16:19:00,
2013-02-10 11:25:00,79.5,54.4,30.30,SSE,158,4.0,5.6,42,0.00,,---,0.00,VWS V14.01,2013-02-10 16:25:00,
2013-02-10 11:30:00,80.1,54.3,30.30,ENE,68,5.6,6.5,41,0.00,,---,0.00,VWS V14.01,2013-02-10 16:30:00,
2013-02-10 11:35:00,80.6,54.8,30.30,South,180,3.4,7.8,41,0.00,,---,0.00,VWS V14.01,2013-02-10 16:35:00,
2013-02-10 11:40:00,80.8,54.2,30.30,SSW,202,2.9,3.4,40,0.00,,---,0.00,VWS V14.01,2013-02-10 16:40:00,
2013-02-10 11:46:00,81.0,54.4,30.27,East,90,6.3,6.3,40,0.00,,---,0.00,VWS V14.01,2013-02-10 16:46:00,
2013-02-10 11:51:00,81.3,54.0,30.27,ESE,112,5.4,7.2,39,0.00,,---,0.00,VWS V14.01,2013-02-10 16:51:00,
2013-02-10 11:57:00,81.5,54.2,30.27,ESE,112,4.9,5.6,39,0.00,,---,0.00,VWS V14.01,2013-02-10 16:57:00,
2013-02-10 12:02:00,81.7,53.6,30.27,WSW,248,4.5,4.5,38,0.00,,---,0.00,VWS V14.01,2013-02-10 17:02:00,
2013-02-10 12:07:00,81.9,53.8,30.27,ESE,112,2.7,8.7,38,0.00,,---,0.00,VWS V14.01,2013-02-10 17:07:00,
2013-02-10 12:13:00,81.9,53.8,30.27,ENE,68,4.3,4.7,38,0.00,,---,0.00,VWS V14.01,2013-02-10 17:13:00,
2013-02-10 12:18:00,82.2,53.4,30.27,ESE,112,2.5,8.7,37,0.00,,---,0.00,VWS V14.01,2013-02-10 17:18:00,
2013-02-10 12:24:00,82.6,53.7,30.27,SSE,158,5.4,5.4,37,0.00,,---,0.00,VWS V14.01,2013-02-10 17:24:00,
2013-02-10 12:29:00,82.9,54.0,30.27,SSE,158,9.0,9.0,37,0.00,,---,0.00,VWS V14.01,2013-02-10 17:29:00,
2013-02-10 12:36:00,83.1,52.7,30.27,NNE,22,8.5,8.5,35,0.00,,---,0.00,VWS V14.01,2013-02-10 17:36:00,
2013-02-10 12:41:00,83.8,53.3,30.27,SSE,158,2.5,6.5,35,0.00,,---,0.00,VWS V14.01,2013-02-10 17:41:00,
2013-02-10 12:46:00,82.9,51.7,30.27,SE,135,6.5,6.5,34,0.00,,---,0.00,VWS V14.01,2013-02-10 17:46:00,
2013-02-10 12:52:00,82.8,51.6,30.27,SSW,202,8.5,8.5,34,0.00,,---,0.00,VWS V14.01,2013-02-10 17:52:00,
2013-02-10 12:57:00,82.2,51.1,30.27,NE,45,1.6,6.0,34,0.00,,---,0.00,VWS V14.01,2013-02-10 17:57:00,
2013-02-10 13:04:00,82.6,52.2,30.27,ENE,68,5.6,5.6,35,0.00,,---,0.00,VWS V14.01,2013-02-10 18:04:00,
2013-02-10 13:10:00,82.4,52.0,30.27,East,90,5.8,5.8,35,0.00,,---,0.00,VWS V14.01,2013-02-10 18:10:00,
2013-02-10 13:15:00,82.0,51.7,30.27,NNE,22,7.6,10.1,35,0.00,,---,0.00,VWS V14.01,2013-02-10 18:15:00,
2013-02-10 13:20:00,81.7,51.4,30.27,NE,45,6.3,8.1,35,0.00,,---,0.00,VWS V14.01,2013-02-10 18:20:00,
2013-02-10 13:27:00,82.6,52.2,30.27,SE,135,8.7,8.7,35,0.00,,---,0.00,VWS V14.01,2013-02-10 18:27:00,
2013-02-10 13:32:00,82.9,51.7,30.24,ESE,112,7.6,7.6,34,0.00,,---,0.00,VWS V14.01,2013-02-10 18:32:00,
2013-02-10 13:39:00,82.6,50.6,30.24,SE,135,3.1,3.1,33,0.00,,---,0.00,VWS V14.01,2013-02-10 18:39:00,
2013-02-10 13:44:00,82.6,50.6,30.24,East,90,3.4,5.8,33,0.00,,---,0.00,VWS V14.01,2013-02-10 18:44:00,
2013-02-10 13:50:00,82.6,50.6,30.24,SE,135,7.6,7.6,33,0.00,,---,0.00,VWS V14.01,2013-02-10 18:50:00,
2013-02-10 13:56:00,83.1,51.1,30.24,ESE,112,3.8,5.8,33,0.00,,---,0.00,VWS V14.01,2013-02-10 18:56:00,
2013-02-10 14:01:00,83.7,50.7,30.24,East,90,8.5,8.7,32,0.00,,---,0.00,VWS V14.01,2013-02-10 19:01:00,
2013-02-10 14:06:00,84.2,51.2,30.24,NNE,22,8.1,8.1,32,0.00,,---,0.00,VWS V14.01,2013-02-10 19:06:00,
2013-02-10 14:11:00,84.7,50.8,30.24,SE,135,10.3,10.3,31,0.00,,---,0.00,VWS V14.01,2013-02-10 19:11:00,
2013-02-10 14:18:00,84.6,50.6,30.24,SSW,202,1.6,3.4,31,0.00,,---,0.00,VWS V14.01,2013-02-10 19:18:00,
2013-02-10 14:23:00,84.0,50.2,30.24,East,90,0.0,10.5,31,0.00,,---,0.00,VWS V14.01,2013-02-10 19:23:00,
2013-02-10 14:28:00,83.5,49.7,30.24,ESE,112,2.0,6.3,31,0.00,,---,0.00,VWS V14.01,2013-02-10 19:28:00,
2013-02-10 14:34:00,82.8,49.1,30.24,ESE,112,4.0,4.0,31,0.00,,---,0.00,VWS V14.01,2013-02-10 19:34:00,
2013-02-10 14:39:00,82.6,48.9,30.24,ESE,112,8.1,8.1,31,0.00,,---,0.00,VWS V14.01,2013-02-10 19:39:00,
2013-02-10 14:44:00,82.2,49.5,30.21,East,90,2.5,3.4,32,0.00,,---,0.00,VWS V14.01,2013-02-10 19:44:00,
2013-02-10 14:49:00,82.0,49.3,30.21,NE,45,4.3,4.3,32,0.00,,---,0.00,VWS V14.01,2013-02-10 19:49:00,
2013-02-10 14:55:00,81.7,49.0,30.21,SSE,158,0.9,2.9,32,0.00,,---,0.00,VWS V14.01,2013-02-10 19:55:00,
2013-02-10 15:01:00,81.5,48.8,30.21,ESE,112,7.2,7.8,32,0.00,,---,0.00,VWS V14.01,2013-02-10 20:01:00,
2013-02-10 15:06:00,82.0,49.3,30.21,SE,135,6.5,6.5,32,0.00,,---,0.00,VWS V14.01,2013-02-10 20:06:00,
2013-02-10 15:12:00,81.9,49.1,30.21,SSW,202,5.4,5.6,32,0.00,,---,0.00,VWS V14.01,2013-02-10 20:12:00,
2013-02-10 15:17:00,82.2,49.5,30.21,NE,45,2.7,5.8,32,0.00,,---,0.00,VWS V14.01,2013-02-10 20:17:00,
2013-02-10 15:23:00,82.4,49.6,30.21,NNW,338,3.6,6.5,32,0.00,,---,0.00,VWS V14.01,2013-02-10 20:23:00,
2013-02-10 15:28:00,82.8,49.1,30.21,NE,45,2.7,4.0,31,0.00,,---,0.00,VWS V14.01,2013-02-10 20:28:00,
2013-02-10 15:34:00,83.3,49.5,30.21,South,180,2.5,7.2,31,0.00,,---,0.00,VWS V14.01,2013-02-10 20:34:00,
2013-02-10 15:39:00,83.7,50.7,30.21,SSW,202,2.2,3.8,32,0.00,,---,0.00,VWS V14.01,2013-02-10 20:39:00,
2013-02-10 15:44:00,83.5,50.5,30.21,SSW,202,3.6,5.8,32,0.00,,---,0.00,VWS V14.01,2013-02-10 20:44:00,
2013-02-10 15:50:00,83.3,50.4,30.21,SW,225,6.5,9.0,32,0.00,,---,0.00,VWS V14.01,2013-02-10 20:50:00,
2013-02-10 15:55:00,82.9,50.1,30.21,SSW,202,4.3,4.3,32,0.00,,---,0.00,VWS V14.01,2013-02-10 20:55:00,
2013-02-10 16:01:00,82.8,49.9,30.21,SW,225,2.7,6.0,32,0.00,,---,0.00,VWS V14.01,2013-02-10 21:01:00,
2013-02-10 16:06:00,82.2,50.3,30.21,SSW,202,5.4,5.4,33,0.00,,---,0.00,VWS V14.01,2013-02-10 21:06:00,
2013-02-10 16:12:00,81.7,49.8,30.21,SSW,202,3.1,3.1,33,0.00,,---,0.00,VWS V14.01,2013-02-10 21:12:00,
2013-02-10 16:17:00,81.3,50.3,30.21,SSW,202,3.1,3.1,34,0.00,,---,0.00,VWS V14.01,2013-02-10 21:17:00,
2013-02-10 16:22:00,81.1,50.1,30.21,SSW,202,2.9,3.1,34,0.00,,---,0.00,VWS V14.01,2013-02-10 21:22:00,
2013-02-10 16:28:00,80.8,49.8,30.21,South,180,2.5,2.9,34,0.00,,---,0.00,VWS V14.01,2013-02-10 21:28:00,
2013-02-10 16:34:00,80.4,50.3,30.21,SSW,202,3.1,5.4,35,0.00,,---,0.00,VWS V14.01,2013-02-10 21:34:00,
2013-02-10 16:39:00,80.1,50.7,30.21,SW,225,2.7,2.7,36,0.00,,---,0.00,VWS V14.01,2013-02-10 21:39:00,
2013-02-10 16:44:00,79.5,50.2,30.24,SSW,202,3.8,4.3,36,0.00,,---,0.00,VWS V14.01,2013-02-10 21:44:00,
2013-02-10 16:50:00,79.0,50.5,30.24,SW,225,4.7,6.5,37,0.00,,---,0.00,VWS V14.01,2013-02-10 21:50:00,
2013-02-10 16:55:00,78.6,50.9,30.24,SSW,202,6.7,6.7,38,0.00,,---,0.00,VWS V14.01,2013-02-10 21:55:00,
2013-02-10 17:00:00,78.3,51.3,30.24,SW,225,2.7,4.3,39,0.00,,---,0.00,VWS V14.01,2013-02-10 22:00:00,
2013-02-10 17:07:00,77.7,51.5,30.24,SW,225,2.9,4.0,40,0.00,,---,0.00,VWS V14.01,2013-02-10 22:07:00,
2013-02-10 17:12:00,77.4,51.8,30.24,SSE,158,5.8,5.8,41,0.00,,---,0.00,VWS V14.01,2013-02-10 22:12:00,
2013-02-10 17:18:00,77.2,51.7,30.24,SW,225,4.3,5.4,41,0.00,,---,0.00,VWS V14.01,2013-02-10 22:18:00,
2013-02-10 17:23:00,76.6,51.8,30.24,WSW,248,3.8,5.4,42,0.00,,---,0.00,VWS V14.01,2013-02-10 22:23:00,
2013-02-10 17:30:00,76.3,52.2,30.24,SSW,202,2.0,2.7,43,0.00,,---,0.00,VWS V14.01,2013-02-10 22:30:00,
2013-02-10 17:35:00,76.1,52.0,30.24,SSE,158,1.1,3.4,43,0.00,,---,0.00,VWS V14.01,2013-02-10 22:35:00,
2013-02-10 17:40:00,75.7,51.7,30.24,SSW,202,2.0,3.1,43,0.00,,---,0.00,VWS V14.01,2013-02-10 22:40:00,
2013-02-10 17:46:00,75.6,52.1,30.24,SSW,202,1.6,3.1,44,0.00,,---,0.00,VWS V14.01,2013-02-10 22:46:00,
2013-02-10 17:53:00,75.4,52.0,30.24,SSW,202,2.7,2.7,44,0.00,,---,0.00,VWS V14.01,2013-02-10 22:53:00,
2013-02-10 17:58:00,75.0,52.3,30.24,SW,225,0.0,3.1,45,0.00,,---,0.00,VWS V14.01,2013-02-10 22:58:00,
2013-02-10 18:03:00,74.8,52.1,30.24,South,180,2.5,2.9,45,0.00,,---,0.00,VWS V14.01,2013-02-10 23:03:00,
2013-02-10 18:08:00,74.7,51.9,30.24,SSW,202,2.0,2.9,45,0.00,,---,0.00,VWS V14.01,2013-02-10 23:08:00,
2013-02-10 18:14:00,74.5,52.4,30.24,SSW,202,2.7,4.7,46,0.00,,---,0.00,VWS V14.01,2013-02-10 23:14:00,
2013-02-10 18:19:00,74.3,52.2,30.24,SE,135,2.0,2.5,46,0.00,,---,0.00,VWS V14.01,2013-02-10 23:19:00,
2013-02-10 18:25:00,74.1,52.0,30.24,SE,135,0.0,1.6,46,0.00,,---,0.00,VWS V14.01,2013-02-10 23:25:00,
2013-02-10 18:31:00,73.9,51.9,30.24,SW,225,0.0,0.0,46,0.00,,---,0.00,VWS V14.01,2013-02-10 23:31:00,
2013-02-10 18:38:00,74.1,52.6,30.24,SSW,202,2.2,2.5,47,0.00,,---,0.00,VWS V14.01,2013-02-10 23:38:00,
2013-02-10 18:43:00,74.1,52.6,30.24,SSE,158,1.1,1.1,47,0.00,,---,0.00,VWS V14.01,2013-02-10 23:43:00,
2013-02-10 18:48:00,73.9,52.5,30.24,SSW,202,2.0,2.0,47,0.00,,---,0.00,VWS V14.01,2013-02-10 23:48:00,
2013-02-10 18:54:00,73.8,52.3,30.24,ESE,112,0.0,2.9,47,0.00,,---,0.00,VWS V14.01,2013-02-10 23:54:00,
2013-02-10 18:59:00,73.8,52.3,30.24,SSW,202,1.1,1.1,47,0.00,,---,0.00,VWS V14.01,2013-02-10 23:59:00,
2013-02-10 19:05:00,73.6,52.7,30.24,SSE,158,0.0,0.0,48,0.00,,---,0.00,VWS V14.01,2013-02-11 00:05:00,
2013-02-10 19:10:00,73.4,52.5,30.24,South,180,0.0,0.0,48,0.00,,---,0.00,VWS V14.01,2013-02-11 00:10:00,
2013-02-10 19:15:00,73.2,52.9,30.24,SE,135,0.9,0.9,49,0.00,,---,0.00,VWS V14.01,2013-02-11 00:15:00,
2013-02-10 19:20:00,73.0,52.2,30.24,ESE,112,1.6,2.5,48,0.00,,---,0.00,VWS V14.01,2013-02-11 00:20:00,
2013-02-10 19:26:00,73.0,52.2,30.24,NNE,22,3.1,3.4,48,0.00,,---,0.00,VWS V14.01,2013-02-11 00:26:00,
2013-02-10 19:32:00,73.0,51.6,30.24,East,90,2.5,2.5,47,0.00,,---,0.00,VWS V14.01,2013-02-11 00:32:00,
2013-02-10 19:37:00,73.0,51.6,30.24,North,0,2.9,2.9,47,0.00,,---,0.00,VWS V14.01,2013-02-11 00:37:00,
2013-02-10 19:42:00,73.0,51.6,30.24,ESE,112,2.7,2.7,47,0.00,,---,0.00,VWS V14.01,2013-02-11 00:42:00,
2013-02-10 19:48:00,73.0,51.6,30.27,ENE,68,3.1,5.4,47,0.00,,---,0.00,VWS V14.01,2013-02-11 00:48:00,
2013-02-10 19:53:00,73.0,51.1,30.27,ESE,112,4.3,5.4,46,0.00,,---,0.00,VWS V14.01,2013-02-11 00:53:00,
2013-02-10 19:59:00,73.0,51.1,30.24,East,90,2.0,3.6,46,0.00,,---,0.00,VWS V14.01,2013-02-11 00:59:00,
2013-02-10 20:04:00,72.9,50.9,30.24,ESE,112,2.0,3.1,46,0.00,,---,0.00,VWS V14.01,2013-02-11 01:04:00,
2013-02-10 20:10:00,72.9,50.9,30.24,ESE,112,5.4,5.4,46,0.00,,---,0.00,VWS V14.01,2013-02-11 01:10:00,
2013-02-10 20:15:00,72.7,50.7,30.27,SSE,158,4.7,4.7,46,0.00,,---,0.00,VWS V14.01,2013-02-11 01:15:00,
2013-02-10 20:21:00,72.3,51.0,30.27,SE,135,1.3,3.4,47,0.00,,---,0.00,VWS V14.01,2013-02-11 01:21:00,
2013-02-10 20:27:00,72.1,50.8,30.27,NE,45,2.2,3.6,47,0.00,,---,0.00,VWS V14.01,2013-02-11 01:27:00,
2013-02-10 20:32:00,72.0,50.7,30.27,ENE,68,0.9,1.6,47,0.00,,---,0.00,VWS V14.01,2013-02-11 01:32:00,
2013-02-10 20:38:00,71.8,51.1,30.27,East,90,2.9,2.9,48,0.00,,---,0.00,VWS V14.01,2013-02-11 01:38:00,
2013-02-10 20:44:00,71.6,50.9,30.27,ENE,68,0.0,3.8,48,0.00,,---,0.00,VWS V14.01,2013-02-11 01:44:00,
2013-02-10 20:50:00,71.4,51.3,30.27,East,90,1.3,1.6,49,0.00,,---,0.00,VWS V14.01,2013-02-11 01:50:00,
2013-02-10 20:55:00,71.2,51.1,30.27,SE,135,1.6,1.6,49,0.00,,---,0.00,VWS V14.01,2013-02-11 01:55:00,
2013-02-10 21:00:00,71.1,51.0,30.27,ENE,68,2.0,3.1,49,0.00,,---,0.00,VWS V14.01,2013-02-11 02:00:00,
2013-02-10 21:06:00,70.9,51.3,30.27,NE,45,1.6,2.5,50,0.00,,---,0.00,VWS V14.01,2013-02-11 02:06:00,
2013-02-10 21:12:00,70.7,51.2,30.27,ESE,112,1.1,2.0,50,0.00,,---,0.00,VWS V14.01,2013-02-11 02:12:00,
2013-02-10 21:17:00,70.5,51.0,30.27,ENE,68,3.1,3.1,50,0.00,,---,0.00,VWS V14.01,2013-02-11 02:17:00,
2013-02-10 21:24:00,70.3,51.4,30.27,ENE,68,3.1,3.1,51,0.00,,---,0.00,VWS V14.01,2013-02-11 02:24:00,
2013-02-10 21:30:00,70.3,51.4,30.27,NNW,338,2.9,2.9,51,0.00,,---,0.00,VWS V14.01,2013-02-11 02:30:00,
2013-02-10 21:35:00,70.3,51.4,30.27,East,90,1.1,2.5,51,0.00,,---,0.00,VWS V14.01,2013-02-11 02:35:00,
2013-02-10 21:41:00,70.2,51.7,30.27,ENE,68,0.9,3.4,52,0.00,,---,0.00,VWS V14.01,2013-02-11 02:41:00,
2013-02-10 21:49:00,70.2,51.7,30.27,East,90,2.7,2.7,52,0.00,,---,0.00,VWS V14.01,2013-02-11 02:49:00,
2013-02-10 21:54:00,70.0,51.6,30.27,SE,135,2.0,2.2,52,0.00,,---,0.00,VWS V14.01,2013-02-11 02:54:00,
2013-02-10 22:00:00,69.8,51.9,30.27,East,90,1.6,2.5,53,0.00,,---,0.00,VWS V14.01,2013-02-11 03:00:00,
2013-02-10 22:05:00,69.6,51.8,30.27,ESE,112,3.1,3.1,53,0.00,,---,0.00,VWS V14.01,2013-02-11 03:05:00,
2013-02-10 22:10:00,69.6,52.3,30.27,ESE,112,0.9,2.9,54,0.00,,---,0.00,VWS V14.01,2013-02-11 03:10:00,
2013-02-10 22:16:00,69.4,52.1,30.27,ESE,112,2.2,3.1,54,0.00,,---,0.00,VWS V14.01,2013-02-11 03:16:00,
2013-02-10 22:21:00,69.4,52.1,30.27,East,90,2.7,3.4,54,0.00,,---,0.00,VWS V14.01,2013-02-11 03:21:00,
2013-02-10 22:27:00,69.3,52.4,30.27,East,90,3.1,3.1,55,0.00,,---,0.00,VWS V14.01,2013-02-11 03:27:00,
2013-02-10 22:33:00,69.1,52.2,30.27,NE,45,3.4,3.4,55,0.00,,---,0.00,VWS V14.01,2013-02-11 03:33:00,
2013-02-10 22:39:00,69.1,52.7,30.27,ESE,112,3.8,3.8,56,0.00,,---,0.00,VWS V14.01,2013-02-11 03:39:00,
2013-02-10 22:44:00,69.1,52.7,30.27,ESE,112,2.9,3.1,56,0.00,,---,0.00,VWS V14.01,2013-02-11 03:44:00,
2013-02-10 22:49:00,68.9,52.6,30.27,NE,45,2.0,4.0,56,0.00,,---,0.00,VWS V14.01,2013-02-11 03:49:00,
2013-02-10 22:54:00,68.9,52.6,30.27,NE,45,2.0,2.5,56,0.00,,---,0.00,VWS V14.01,2013-02-11 03:54:00,
2013-02-10 22:59:00,68.7,52.9,30.27,East,90,0.0,2.9,57,0.00,,---,0.00,VWS V14.01,2013-02-11 03:59:00,
2013-02-10 23:06:00,68.7,52.9,30.27,SSE,158,2.5,2.5,57,0.00,,---,0.00,VWS V14.01,2013-02-11 04:06:00,
2013-02-10 23:11:00,68.5,53.2,30.27,NE,45,3.6,3.6,58,0.00,,---,0.00,VWS V14.01,2013-02-11 04:11:00,
2013-02-10 23:17:00,68.4,53.0,30.27,ESE,112,2.2,2.9,58,0.00,,---,0.00,VWS V14.01,2013-02-11 04:17:00,
2013-02-10 23:22:00,68.4,53.0,30.27,ESE,112,0.0,2.5,58,0.00,,---,0.00,VWS V14.01,2013-02-11 04:22:00,
2013-02-10 23:27:00,68.2,52.9,30.27,ESE,112,1.6,4.3,58,0.00,,---,0.00,VWS V14.01,2013-02-11 04:27:00,
2013-02-10 23:33:00,68.2,53.3,30.27,NE,45,0.0,2.2,59,0.00,,---,0.00,VWS V14.01,2013-02-11 04:33:00,
2013-02-10 23:39:00,68.0,53.2,30.27,ESE,112,2.9,3.6,59,0.00,,---,0.00,VWS V14.01,2013-02-11 04:39:00,
2013-02-10 23:45:00,68.0,53.2,30.27,ENE,68,1.3,1.3,59,0.00,,---,0.00,VWS V14.01,2013-02-11 04:45:00,
2013-02-10 23:50:00,67.8,53.4,30.27,ENE,68,1.3,1.3,60,0.00,,---,0.00,VWS V14.01,2013-02-11 04:50:00,
2013-02-10 23:56:00,67.6,53.3,30.27,East,90,2.0,2.9,60,0.00,,---,0.00,VWS V14.01,2013-02-11 04:56:00,